Lincoln, NE

7:18 AM CST on December 16, 2019 (GMT -0600)
Lincoln Municipal

Weather History for KLNK - November, 2019

Change the Weather History Date:

Monday, November 18, 2019

  Actual Average Record
Temperature  
Mean Temperature 50 °F 38 °F  
Max Temperature 68 °F 49 °F 78 °F (1908)
Min Temperature 31 °F 26 °F 4 °F (1891)
Degree Days  
Heating Degree Days 15 27  
Month to date heating degree days 503 411  
Since 1 July heating degree days 1014 890  
Cooling Degree Days 0 0  
Month to date cooling degree days 0 0  
Year to date cooling degree days 1332 1173  
Moisture  
Dew Point 34 °F    
Average Humidity 54    
Maximum Humidity 78    
Minimum Humidity 29    
Precipitation  
Precipitation T in 0.05 in 0.68 in (1948)
Month to date precipitation 0.02 0.93  
Year to date precipitation 32.77 27.50  
Snow  
Snow 0.00 in 0.10 in 5.20 in (1957)
Month to date snowfall 0.5 0.9  
Since 1 July snowfall 1.2 1.6  
Since 1 September snowfall 1.2 1.6  
Snow Depth 0.00 in    
Sea Level Pressure  
Sea Level Pressure 29.77 in    
Wind  
Wind Speed 9 mph (WNW)    
Max Wind Speed 30 mph    
Max Gust Speed 41 mph    
Visibility 10 miles    
Events Rain    
T = Trace of Precipitation, MM = Missing Value Source: NWS Daily Summary

Daily Weather History Graph

Daily Weather History Graph

Search for Another Location

Airport or City:

Astronomy

Nov. 18, 2019 Rise Set
Actual Time 7:17 AM CST 5:06 PM CST
Civil Twilight 6:47 AM CST 5:36 PM CST
Nautical Twilight 6:14 AM CST 6:09 PM CST
Astronomical Twilight 5:41 AM CST 6:41 PM CST
Moon 10:52 PM CST (11/18) 12:49 PM CST (11/18)
Length of Visible Light 10h 48m
Length of Day
9h 49m
Waning Gibbous, 63% of the Moon is Illuminated
Nov 18
Waning Gibbous
Nov 19
Last Quarter
Nov 26
New
Dec 4
First Quarter
Dec 11
Full

Hourly Weather History & Observations

Time (CST) Temp. Windchill Dew Point Humidity Pressure Visibility Wind Dir Wind Speed Gust Speed Precip Events Conditions
12:54 AM 32.0 °F 28.7 °F 26.1 °F 79% 29.88 in 10.0 mi SSE 3.5 mph - N/A   Clear
1:54 AM 32.0 °F 28.7 °F 27.0 °F 82% 29.84 in 10.0 mi SSE 3.5 mph - N/A   Clear
2:54 AM 33.1 °F 30.0 °F 27.0 °F 78% 29.82 in 10.0 mi SSE 3.5 mph - N/A   Clear
3:54 AM 35.1 °F - 28.0 °F 76% 29.78 in 10.0 mi Calm Calm - N/A   Clear
4:54 AM 37.0 °F - 28.9 °F 73% 29.78 in 10.0 mi Calm Calm - N/A   Overcast
5:54 AM 37.0 °F - 30.9 °F 79% 29.78 in 10.0 mi Calm Calm - 0.00 in Rain Light Rain
6:54 AM 37.0 °F - 30.9 °F 79% 29.77 in 10.0 mi Calm Calm - 0.00 in   Overcast
7:54 AM 37.9 °F 34.4 °F 30.9 °F 76% 29.76 in 10.0 mi SSE 4.6 mph - N/A   Mostly Cloudy
8:54 AM 42.1 °F - 33.1 °F 70% 29.77 in 10.0 mi Calm Calm - N/A   Mostly Cloudy
9:54 AM 48.0 °F - 34.0 °F 58% 29.77 in 10.0 mi West 4.6 mph - N/A   Overcast
10:54 AM 55.9 °F - 36.0 °F 47% 29.75 in 10.0 mi NW 6.9 mph - N/A   Overcast
11:54 AM 60.1 °F - 39.0 °F 46% 29.72 in 10.0 mi NW 6.9 mph - N/A   Scattered Clouds
12:54 PM 64.0 °F - 43.0 °F 46% 29.69 in 10.0 mi NW 19.6 mph 26.5 mph N/A   Mostly Cloudy
1:54 PM 68.0 °F - 44.1 °F 42% 29.67 in 10.0 mi NW 19.6 mph 26.5 mph N/A   Scattered Clouds
2:54 PM 66.9 °F - 39.0 °F 36% 29.67 in 10.0 mi NW 24.2 mph 31.1 mph N/A   Mostly Cloudy
3:54 PM 66.9 °F - 34.0 °F 30% 29.67 in 10.0 mi NW 21.9 mph 32.2 mph N/A   Scattered Clouds
4:54 PM 64.0 °F - 33.1 °F 31% 29.69 in 10.0 mi NW 17.3 mph - N/A   Clear
5:54 PM 60.1 °F - 34.0 °F 38% 29.72 in 10.0 mi NW 11.5 mph - N/A   Clear
6:54 PM 57.0 °F - 35.1 °F 44% 29.75 in 10.0 mi NW 11.5 mph - N/A   Clear
7:54 PM 54.0 °F - 37.0 °F 53% 29.79 in 10.0 mi NNW 13.8 mph - N/A   Clear
8:54 PM 53.1 °F - 37.9 °F 57% 29.81 in 10.0 mi NNW 11.5 mph - N/A   Clear
9:54 PM 50.0 °F - 37.0 °F 61% 29.83 in 10.0 mi WNW 6.9 mph - N/A   Clear
10:54 PM 48.0 °F - 37.0 °F 66% 29.85 in 10.0 mi WNW 9.2 mph - N/A   Clear
11:54 PM 46.0 °F 41.9 °F 36.0 °F 68% 29.86 in 10.0 mi WNW 8.1 mph - N/A   Clear